Location: Newark
(25.0000°N, 73.5000°E)
Time: 03:43:40
(UTC+00:00)

Altair - Pass Details

Date: 05 March 2021
Orbit: 1501 x 1683 km, 47.2° (Epoch: 12 April)

Event Time Altitude Azimuth Distance (km) Brightness Sun altitude
Rises 18:20:19 0° 317° (NW) 4,713 10.4 -66.4°
Enters shadow 18:22:46 - 324° (NW) 4,037 9.9 -66.7°
Reaches altitude 10° 18:23:51 10° 327° (NNW) 3,755 - -66.9°
Maximum altitude 18:32:12 33° 29° (NNE) 2,464 - -67.9°
Drops below altitude 10° 18:40:48 10° 89° (E) 3,878 - -68.8°
Sets 18:44:28 0° 99° (E) 4,886 - -69.2°
